Regional Weather Roundup
Issued by NWS Bismarck, ND

Home | Current Version | Previous Version | Text Only | Print | Product List | Glossary On
Versions: 1 2 3 4 5 6 7 8 9 10 11 12 13 14 15 16 17 18 19 20 21 22 23 24 25 26 27 28 29 30 31 32 33 34 35 36 37 38 39 40 41 42 43 44 45 46 47 48 49 50
000
ASUS43 KBIS 221120
RWRBIS

NWR BROADCAST TEXT
NATIONAL WEATHER SERVICE BISMARCK ND
600 AM CDT FRI AUG 22 2014

NOTE: "FAIR" INDICATES FEW OR NO CLOUDS BELOW 12,000 FEET WITH NO
SIGNIFICANT WEATHER AND/OR OBSTRUCTIONS TO VISIBILITY.


CITY           SKY/WX    TMP DP  RH WIND       PRES   REMARKS
WILLISTON      CLOUDY    62  55  77 NE14      30.08R
MINOT          LGT RAIN  60  59  96 N8        30.05R FOG
MINOT AFB      LGT RAIN  61  61 100 N9        30.05R
BISMARCK       LGT RAIN  65  65 100 NE5       30.01S FOG
DICKINSON      CLOUDY    63  62  97 CALM      30.03S FOG
GARRISON         N/A     64  63  96 NE6       30.03R
HETTINGER ARPT MOCLDY    59  57  93 W3        30.05R FOG
JAMESTOWN      CLOUDY    67  65  93 NW8       29.98R
BEACH            N/A     59  59 100 NW3       30.07S FOG
CARRINGTON     CLOUDY    66  66 100 N6        30.02R
CROSBY         PTSUNNY   55  55 100 NE5       30.11R
HARVEY         LGT RAIN  63  63 100 NE6       30.03R
HAZEN          CLOUDY    63  63 100 N3        30.03S
LINTON         LGT RAIN  64  64 100 CALM      29.99R
MANDAN         CLOUDY    64  64 100 N5        30.02S FOG
RUGBY          PTSUNNY   61  61 100 NE7       30.04R
STANLEY        CLOUDY    57  57 100 NE8       30.08R
TIOGA          CLOUDY    57  57 100 NE9       30.12R
WATFORD CITY   CLOUDY    59  59 100 NE7       30.05R
$$

CITY           SKY/WX    TMP DP  RH WIND       PRES   REMARKS
GRAND FORKS    CLOUDY    67  66  97 N7        29.93R
GRAND FORKS AF CLOUDY    66  66 100 N8        29.96R
DEVILS LAKE    CLOUDY    64  57  77 N10       30.00R
FARGO          FOG       66  65  96 N3        29.93R VSB 1/4
CANDO          CLOUDY    63  61  94 N10       30.03R
CAVALIER       LGT RAIN  64  63  94 NW12      29.98R VSB 3/4
GRAFTON        CLOUDY    66  66 100 NW10G16   29.96R
GWINNER        CLOUDY    66  66 100 NW9       29.98R VSB 1/2
LANGDON        CLOUDY    63  61  94 N12       30.02R FOG
ROLLA          CLOUDY    59  59 100 N8        30.06R FOG
WALHALLA         N/A     63  63 100 N12       30.00R
$$

CITY           SKY/WX    TMP DP  RH WIND       PRES   REMARKS
ABERDEEN       MOCLDY    64  64 100 N10       29.96R
MOBRIDGE       CLOUDY    64  63  96 W3        29.98S
BUFFALO          N/A     58  57  97 NW7       30.00S
RAPID CITY     CLOUDY    61  60  97 N16       30.04R FOG
GLASGOW        LGT RAIN  59  58  96 NE13      30.08R
SIDNEY         CLOUDY    63  61  94 NE8       30.08R
WOLF POINT     LGT RAIN  61  58  90 NE10      30.08R FOG
GLENDIVE       CLOUDY    61  59  94 N3        30.08S
MILES CITY     CLOUDY    60  57  89 NW3       30.07R
BAKER          CLOUDY    61  59  93 CALM      30.08R
$$

CITY           SKY/WX    TMP DP  RH WIND       PRES   REMARKS
BILLINGS       CLOUDY    56  54  93 CALM      30.10S
GREAT FALLS    CLOUDY    51  50  96 NE7       30.12F
REGINA         CLOUDY    57  55  94 NE10      30.15R
ESTEVAN        MOCLDY    55  54  94 NE5       30.11R
$$




USA.gov is the U.S. government's official web portal to all federal, state and local government web resources and services.